This is the latest recevied weather packets stored in our database for station/object KB0RPJ. If no packets are shown the sender has not sent any weather packets the latest 10 day(s).
| Time | Temp. | Humidity | Pressure | Rain* | Wind** | Luminosity | Snow |
|---|---|---|---|---|---|---|---|
| 1777906505 | 20° C | 57% | 1001.7 hPa | 0 mm | - | 126 W/m² | - |
| 1777906208 | 20° C | 57% | 1001.7 hPa | 0 mm | - | 176 W/m² | - |
| 1777905904 | 20° C | 58% | 1001.8 hPa | 0 mm | - | 97 W/m² | - |
| 1777905605 | 19.44° C | 60% | 1001.8 hPa | 0 mm | - | 77 W/m² | - |
| 1777905305 | 19.44° C | 60% | 1001.8 hPa | 0 mm | - | 81 W/m² | - |
| 1777905006 | 19.44° C | 59% | 1001.9 hPa | 0 mm | - | 170 W/m² | - |
| 1777904705 | 18.89° C | 59% | 1001.9 hPa | 0 mm | - | 162 W/m² | - |
| 1777904406 | 18.89° C | 60% | 1002 hPa | 0 mm | - | 117 W/m² | - |
| 1777904105 | 18.89° C | 60% | 1002 hPa | 0 mm | - | 274 W/m² | - |
| 1777903805 | 18.33° C | 60% | 1002 hPa | 0 mm | - | 201 W/m² | - |
| 1777903504 | 18.33° C | 60% | 1002 hPa | 0 mm | - | 231 W/m² | - |
| 1777903204 | 18.33° C | 62% | 1002.1 hPa | 0 mm | - | 75 W/m² | - |
| 1777902905 | 18.33° C | 61% | 1002.2 hPa | 0 mm | - | 147 W/m² | - |
| 1777902606 | 17.78° C | 65% | 1002.1 hPa | 0 mm | - | 68 W/m² | - |
| 1777902305 | 17.78° C | 64% | 1002.2 hPa | 0 mm | - | 66 W/m² | - |
| 1777902005 | 17.78° C | 64% | 1002.3 hPa | 0 mm | - | 66 W/m² | - |
| 1777901706 | 17.22° C | 65% | 1002.2 hPa | 0 mm | - | 68 W/m² | - |
| 1777901412 | 17.22° C | 66% | 1002.2 hPa | 0 mm | - | 71 W/m² | - |
| 1777901107 | 17.22° C | 67% | 1002.3 hPa | 0 mm | - | 62 W/m² | - |
| 1777900806 | 16.67° C | 68% | 1002.3 hPa | 0 mm | - | 62 W/m² | - |
| 1777900518 | 16.67° C | 69% | 1002.3 hPa | 0 mm | - | 103 W/m² | - |
| 1777900206 | 16.11° C | 70% | 1002.3 hPa | 0 mm | - | 220 W/m² | - |
| 1777899905 | 16.11° C | 71% | 1002.3 hPa | 0 mm | - | 169 W/m² | - |
| 1777899616 | 15.56° C | 72% | 1002.3 hPa | 0 mm | - | 64 W/m² | - |
| 1777899307 | 15.56° C | 73% | 1002.4 hPa | 0 mm | - | 108 W/m² | - |
* Rain latest hour (hover to see other rain measurements)
** Current wind speed in m/s (hover to see current wind gust speed)